HS6TUX-4 Weather Reports


time (UTC)temp
F
wind
direction
speed
knots
gust
knots
rain 1hr
in
rain 24hr
in
rain mn
in
humidity
%
barometer
mb
20260509053324 105 0 0.0 0.0 0.00 0.00 0.00 99 739.0
20260509051756 101 0 0.0 0.0 0.00 0.00 0.00 99 737.0
20260509050228 95 0 0.0 0.0 0.00 0.00 0.00 99 733.0
20260509044700 96 0 0.0 0.0 0.00 0.00 0.00 99 734.0
20260509043132 94 0 0.0 0.0 0.00 0.00 0.00 99 732.0
20260509041604 92 0 0.0 0.0 0.00 0.00 0.00 99 731.0
20260509040036 94 0 0.0 0.0 0.00 0.00 0.00 99 732.0
20260509034508 94 0 0.0 0.0 0.00 0.00 0.00 99 733.0
20260509032939 94 0 0.0 0.0 0.00 0.00 0.00 99 732.0
20260509031411 98 0 0.0 0.0 0.00 0.00 0.00 99 735.0
20260509025843 105 0 0.0 0.0 0.00 0.00 0.00 99 739.0
20260509024315 109 0 0.0 0.0 0.00 0.00 0.00 99 742.0
20260509022747 104 0 0.0 0.0 0.00 0.00 0.00 99 739.0
20260509021219 97 0 0.0 0.0 0.00 0.00 0.00 99 734.0
20260509014026 95 0 0.0 0.0 0.00 0.00 0.00 99 733.0
20260509012458 93 0 0.0 0.0 0.00 0.00 0.00 99 732.0
20260509010930 94 0 0.0 0.0 0.00 0.00 0.00 99 733.0
20260509005401 92 0 0.0 0.0 0.00 0.00 0.00 99 731.0
20260509003833 90 0 0.0 0.0 0.00 0.00 0.00 99 730.0
20260509002306 88 0 0.0 0.0 0.00 0.00 0.00 99 729.0
20260509000737 88 0 0.0 0.0 0.00 0.00 0.00 99 729.0
20260508235208 84 0 0.0 0.0 0.00 0.00 0.00 99 726.0
20260508233640 83 0 0.0 0.0 0.00 0.00 0.00 99 726.0
20260508232112 82 0 0.0 0.0 0.00 0.00 0.00 99 725.0
20260508230545 81 0 0.0 0.0 0.00 0.00 0.00 99 724.0
20260508225016 81 0 0.0 0.0 0.00 0.00 0.00 99 724.0
20260508223448 81 0 0.0 0.0 0.00 0.00 0.00 99 724.0
20260508221920 80 0 0.0 0.0 0.00 0.00 0.00 99 724.0
20260508220352 80 0 0.0 0.0 0.00 0.00 0.00 99 724.0
20260508214823 80 0 0.0 0.0 0.00 0.00 0.00 99 724.0
20260508213255 80 0 0.0 0.0 0.00 0.00 0.00 99 724.0
20260508211727 80 0 0.0 0.0 0.00 0.00 0.00 99 724.0
20260508210158 80 0 0.0 0.0 0.00 0.00 0.00 99 724.0
20260508204630 81 0 0.0 0.0 0.00 0.00 0.00 99 724.0
20260508203102 81 0 0.0 0.0 0.00 0.00 0.00 99 724.0
20260508201534 81 0 0.0 0.0 0.00 0.00 0.00 99 724.0
20260508200006 81 0 0.0 0.0 0.00 0.00 0.00 99 724.0
20260508194438 81 0 0.0 0.0 0.00 0.00 0.00 99 724.0
20260508192909 81 0 0.0 0.0 0.00 0.00 0.00 99 724.0
20260508191341 81 0 0.0 0.0 0.00 0.00 0.00 99 724.0
20260508185813 81 0 0.0 0.0 0.00 0.00 0.00 99 724.0
20260508184245 81 0 0.0 0.0 0.00 0.00 0.00 99 724.0
20260508182717 81 0 0.0 0.0 0.00 0.00 0.00 99 724.0
20260508181148 81 0 0.0 0.0 0.00 0.00 0.00 99 724.0
20260508175620 81 0 0.0 0.0 0.00 0.00 0.00 99 724.0
20260508174051 82 0 0.0 0.0 0.00 0.00 0.00 99 725.0
20260508172523 82 0 0.0 0.0 0.00 0.00 0.00 99 725.0
20260508170955 82 0 0.0 0.0 0.00 0.00 0.00 99 725.0
20260508165427 82 0 0.0 0.0 0.00 0.00 0.00 99 725.0
20260508163858 82 0 0.0 0.0 0.00 0.00 0.00 99 725.0
20260508162330 83 0 0.0 0.0 0.00 0.00 0.00 99 725.0
20260508160802 83 0 0.0 0.0 0.00 0.00 0.00 99 725.0
20260508155234 84 0 0.0 0.0 0.00 0.00 0.00 99 726.0
20260508153706 84 0 0.0 0.0 0.00 0.00 0.00 99 726.0
20260508152138 84 0 0.0 0.0 0.00 0.00 0.00 99 726.0
20260508150610 84 0 0.0 0.0 0.00 0.00 0.00 99 726.0
20260508145042 85 0 0.0 0.0 0.00 0.00 0.00 99 726.0
20260508143514 85 0 0.0 0.0 0.00 0.00 0.00 99 727.0
20260508141946 85 0 0.0 0.0 0.00 0.00 0.00 99 727.0
20260508140418 85 0 0.0 0.0 0.00 0.00 0.00 99 727.0
20260508134850 85 0 0.0 0.0 0.00 0.00 0.00 99 727.0
20260508133322 86 0 0.0 0.0 0.00 0.00 0.00 99 727.0
20260508131754 86 0 0.0 0.0 0.00 0.00 0.00 99 727.0
20260508130226 86 0 0.0 0.0 0.00 0.00 0.00 99 727.0
20260508124658 86 0 0.0 0.0 0.00 0.00 0.00 99 727.0
20260508123130 87 0 0.0 0.0 0.00 0.00 0.00 99 728.0
20260508121602 89 0 0.0 0.0 0.00 0.00 0.00 99 729.0
20260508120034 91 0 0.0 0.0 0.00 0.00 0.00 99 730.0
20260508114506 91 0 0.0 0.0 0.00 0.00 0.00 99 730.0
20260508112938 92 0 0.0 0.0 0.00 0.00 0.00 99 731.0
20260508111410 92 0 0.0 0.0 0.00 0.00 0.00 99 731.0
20260508105842 93 0 0.0 0.0 0.00 0.00 0.00 99 731.0
20260508104314 93 0 0.0 0.0 0.00 0.00 0.00 99 732.0
20260508102745 93 0 0.0 0.0 0.00 0.00 0.00 99 732.0
20260508101218 95 0 0.0 0.0 0.00 0.00 0.00 99 733.0
20260508095649 96 0 0.0 0.0 0.00 0.00 0.00 99 733.0
20260508094122 98 0 0.0 0.0 0.00 0.00 0.00 99 735.0
20260508092554 99 0 0.0 0.0 0.00 0.00 0.00 99 736.0
20260508091025 98 0 0.0 0.0 0.00 0.00 0.00 99 735.0
20260508085458 95 0 0.0 0.0 0.00 0.00 0.00 99 733.0
20260508083929 94 0 0.0 0.0 0.00 0.00 0.00 99 732.0
20260508082401 94 0 0.0 0.0 0.00 0.00 0.00 99 732.0
20260508080833 96 0 0.0 0.0 0.00 0.00 0.00 99 734.0
20260508075308 97 0 0.0 0.0 0.00 0.00 0.00 99 734.0
20260508073737 94 0 0.0 0.0 0.00 0.00 0.00 99 733.0
20260508072209 101 0 0.0 0.0 0.00 0.00 0.00 97 737.0
20260508070640 103 0 0.0 0.0 0.00 0.00 0.00 91 738.0
20260508065112 102 0 0.0 0.0 0.00 0.00 0.00 88 737.0
20260508063544 102 0 0.0 0.0 0.00 0.00 0.00 92 737.0
20260508062017 107 0 0.0 0.0 0.00 0.00 0.00 87 741.0
20260508060448 105 0 0.0 0.0 0.00 0.00 0.00 87 740.0
20260508054920 107 0 0.0 0.0 0.00 0.00 0.00 87 740.0